Hourly Data Report for September 26, 2019

TORONTO CITY
ONTARIO
Current Station Operator: ECCC - MSC

43°40'00.000" N
79°24'00.000" W
112.50 m
6158355
71508
XTO

Download Data

Hourly Data (September 2019)
Hourly Data Report for September 26, 2019
TIME
LST
Temp Definition
°C
Dew Point Definition
°C
Rel Hum Definition
%
Precip. Amount Definition
mm

Wind Dir Definition
10's deg

Wind Spd Definition
km/h
Visibility Definition
km
Stn Press Definition
kPa
Hmdx Definition


Wind Chill Definition


Weather Definition


00:00 20.5 11.7 57 0.0       99.22     LegendNANA
01:00 20.4 12.3 60 0.0       99.22     LegendNANA
02:00 19.9 12.4 62 0.0       99.18     LegendNANA
03:00 19.6 12.8 65 0.0       99.18     LegendNANA
04:00 19.1 13.1 68 0.0       99.15     LegendNANA
05:00 17.3 13.8 80 0.6       99.28     LegendNANA
06:00 15.8 12.9 83 2.3       99.24     LegendNANA
07:00 15.4 13.3 87 0.3       99.24     LegendNANA
08:00 15.8 13.4 86 0.0       99.32     LegendNANA
09:00 16.5 13.5 82 0.0       99.34     LegendNANA
10:00 17.8 13.4 76 0.0       99.36     LegendNANA
11:00 20.2 13.1 64 0.0       99.33     LegendNANA
12:00 21.2 7.6 41 0.0       99.37     LegendNANA
13:00 19.7 8.0 47 0.0       99.41     LegendNANA
14:00 21.0 5.1 35 0.0       99.47     LegendNANA
15:00 18.5 7.9 50 0.0       99.56     LegendNANA
16:00 20.1 3.3 33 0.0       99.62     LegendNANA
17:00 18.9 4.8 39 0.0       99.75     LegendNANA
18:00 17.8 4.0 40 0.0       99.91     LegendNANA
19:00 16.3 5.2 48 0.0       99.95     LegendNANA
20:00 15.7 5.4 50 0.0       100.01     LegendNANA
21:00 13.9 5.9 59 0.0       100.05     LegendNANA
22:00 13.4 7.0 65 0.0       100.10     LegendNANA
23:00 13.1 6.6 64 0.0       100.14     LegendNANA

Notes on Data Quality.

Legend

  • E = Estimated
  • M = Missing
  • NA = Not Available*
  • [empty] = Indicates an unobserved value
Date modified: